Skip Page Navigation
NASA JPL Caltech
NASA Logo - Jet Propulsion Laboratory + View the NASA Portal
+ Near-Earth Object (NEO) Program
Search JPL
JPL Home Earth Solar System Stars & Galaxies Technology
JPL Solar System Dynamics
BODIES ORBITS EPHEMERIDES TOOLS PHYSICAL DATA DISCOVERY FAQ SITE MAP
JPL Small-Body Database Browser
Search: [ help ]  
1694 Kaiser (1934 SB)
Classification: Main-belt Asteroid          SPK-ID: 2001694
Ephemeris | Orbit Diagram | Orbital Elements | Physical Parameters | Discovery Circumstances | Close-Approach Data ]

[ show orbit diagram ]
Orbital Elements at Epoch 2457600.5 (2016-Jul-31.0) TDB
Reference: JPL 20 (heliocentric ecliptic J2000)
 Element Value Uncertainty (1-sigma)   Units 
e .2586055523507041 5.5079e-08  
a 2.395039552886004 7.3962e-09 au
q 1.775669026410136 1.3309e-07 au
i 11.10259941244919 5.9643e-06 deg
node 13.42065273898933 2.3764e-05 deg
peri 356.1678761443702 2.5235e-05 deg
M 18.84624471315178 1.0678e-05 deg
tp 2457529.625536069506
(2016-May-21.12553607)
3.998e-05 JED
period 1353.840375275006
3.71
6.2713e-06
1.717e-08
d
yr
n .2659102258838107 1.2317e-09 deg/d
Q 3.014410079361872 9.3089e-09 au
  Orbit Determination Parameters
   # obs. used (total)      1182  
   data-arc span      29542 days (80.88 yr)  
   first obs. used      1934-09-29  
   last obs. used      2015-08-17  
   planetary ephem.      DE431  
   SB-pert. ephem.      SB431-BIG16  
   condition code      0  
   fit RMS      .52913  
   data source      ORB  
   producer      Otto Matic  
   solution date      2015-Sep-02 14:02:26  

Additional Information
 Earth MOID = .774417 au 
 Jupiter MOID = 2.44092 au 
 T_jup = 3.459 
[ show covariance matrix ]

Ephemeris | Orbit Diagram | Orbital Elements | Physical Parameters | Discovery Circumstances | Close-Approach Data ]

Physical Parameter Table
Parameter Symbol Value Units Sigma Reference Notes
absolute magnitude H 11.46 mag n/a PDS3 (MPC 17263)  
rotation period rot_per 13.02 h n/a LCDB (Rev. 2016-February); Warner et al., 2009 Published Reference List:
[Warner, B.D. (2006) Minor Planet Bul. 33, 58-62.]
[Warner, B.D. (2013) Minor Planet Bul. 40, 71-80.]
B-V BV .735 mag .007 EAR-A-5-DDR-UBV-MEAN-VALUES-V1.1 #obs=2; phase (min.=21.96, mean=22.09, max.=22.23) deg.
U-B UB .415 mag .020 EAR-A-5-DDR-UBV-MEAN-VALUES-V1.1 #obs=2; phase (min.=21.96, mean=22.09, max.=22.23) deg.
Tholen spectral type spec_T GC   n/a EAR-A-5-DDR-TAXONOMY-V4.0 used 2 color indices

1694 Kaiser (1934 SB)          Discovered 1934-Sep-29 by Van Gent, H. at Johannesburg (LS)
Reference: DISCOVERY.DBLast Updated: 2003-08-29

[ show close-approach data ]
Alternate Designations
 1934 SB = 1960 SD 
Ephemeris | Orbit Diagram | Orbital Elements | Physical Parameters | Discovery Circumstances | Close-Approach Data ]
ABOUT SSD CREDITS/AWARDS PRIVACY/COPYRIGHT GLOSSARY LINKS
FirstGov 2016-Apr-30 03:21 UT
(server date/time)  
NASA Home Page
Site Manager:   Ryan S. Park
Webmaster  Alan B. Chamberlin